Year,Month,Day,Hour,Minute,Value (Times are PST for insolation in W/m^2)
2019,03,24,00,00,0.00
2019,03,24,00,01,0.00
2019,03,24,00,02,0.00
2019,03,24,00,03,0.00
2019,03,24,00,04,0.00
2019,03,24,00,05,0.00
2019,03,24,00,06,0.00
2019,03,24,00,07,0.00
2019,03,24,00,08,0.00
2019,03,24,00,09,0.00
2019,03,24,00,10,0.00
2019,03,24,00,11,0.00
2019,03,24,00,12,0.00
2019,03,24,00,13,0.00
2019,03,24,00,14,0.00
2019,03,24,00,15,0.00
2019,03,24,00,16,0.00
2019,03,24,00,17,0.00
2019,03,24,00,18,0.00
2019,03,24,00,19,0.00
2019,03,24,00,20,0.00
2019,03,24,00,21,0.00
2019,03,24,00,22,0.00
2019,03,24,00,23,0.00
2019,03,24,00,24,0.00
2019,03,24,00,25,0.00
2019,03,24,00,26,0.00
2019,03,24,00,27,0.00
2019,03,24,00,28,0.00
2019,03,24,00,29,0.00
2019,03,24,00,30,0.00
2019,03,24,00,31,0.00
2019,03,24,00,32,0.00
2019,03,24,00,33,0.00
2019,03,24,00,34,0.00
2019,03,24,00,35,0.00
2019,03,24,00,36,0.00
2019,03,24,00,37,0.00
2019,03,24,00,38,0.00
2019,03,24,00,39,0.00
2019,03,24,00,40,0.00
2019,03,24,00,41,0.00
2019,03,24,00,42,0.00
2019,03,24,00,43,0.00
2019,03,24,00,44,0.00
2019,03,24,00,45,0.00
2019,03,24,00,46,0.00
2019,03,24,00,47,0.00
2019,03,24,00,48,0.00
2019,03,24,00,49,0.00
2019,03,24,00,50,0.00
2019,03,24,00,51,0.00
2019,03,24,00,52,0.00
2019,03,24,00,53,0.00
2019,03,24,00,54,0.00
2019,03,24,00,55,0.00
2019,03,24,00,56,0.00
2019,03,24,00,57,0.00
2019,03,24,00,58,0.00
2019,03,24,00,59,0.00
2019,03,24,01,00,0.00
2019,03,24,01,01,0.00
2019,03,24,01,02,0.00
2019,03,24,01,03,0.00
2019,03,24,01,04,0.00
2019,03,24,01,05,0.00
2019,03,24,01,06,0.00
2019,03,24,01,07,0.00
2019,03,24,01,08,0.00
2019,03,24,01,09,0.00
2019,03,24,01,10,0.00
2019,03,24,01,11,0.00
2019,03,24,01,12,0.00
2019,03,24,01,13,0.00
2019,03,24,01,14,0.00
2019,03,24,01,15,0.00
2019,03,24,01,16,0.00
2019,03,24,01,17,0.00
2019,03,24,01,18,0.00
2019,03,24,01,19,0.00
2019,03,24,01,20,0.00
2019,03,24,01,21,0.00
2019,03,24,01,22,0.00
2019,03,24,01,23,0.00
2019,03,24,01,24,0.00
2019,03,24,01,25,0.00
2019,03,24,01,26,0.00
2019,03,24,01,27,0.00
2019,03,24,01,28,0.00
2019,03,24,01,29,0.00
2019,03,24,01,30,0.00
2019,03,24,01,31,0.00
2019,03,24,01,32,0.00
2019,03,24,01,33,0.00
2019,03,24,01,34,0.00
2019,03,24,01,35,0.00
2019,03,24,01,36,0.00
2019,03,24,01,37,0.00
2019,03,24,01,38,0.00
2019,03,24,01,39,0.00
2019,03,24,01,40,0.00
2019,03,24,01,41,0.00
2019,03,24,01,42,0.00
2019,03,24,01,43,0.00
2019,03,24,01,44,0.00
2019,03,24,01,45,0.00
2019,03,24,01,46,0.00
2019,03,24,01,47,0.00
2019,03,24,01,48,0.00
2019,03,24,01,49,0.00
2019,03,24,01,50,0.00
2019,03,24,01,51,0.00
2019,03,24,01,52,0.00
2019,03,24,01,53,0.00
2019,03,24,01,54,0.00
2019,03,24,01,55,0.00
2019,03,24,01,56,0.00
2019,03,24,01,57,0.00
2019,03,24,01,58,0.00
2019,03,24,01,59,0.00
2019,03,24,02,00,0.00
2019,03,24,02,01,0.00
2019,03,24,02,02,0.00
2019,03,24,02,03,0.00
2019,03,24,02,04,0.00
2019,03,24,02,05,0.00
2019,03,24,02,06,0.00
2019,03,24,02,07,0.00
2019,03,24,02,08,0.00
2019,03,24,02,09,0.00
2019,03,24,02,10,0.00
2019,03,24,02,11,0.00
2019,03,24,02,12,0.00
2019,03,24,02,13,0.00
2019,03,24,02,14,0.00
2019,03,24,02,15,0.00
2019,03,24,02,16,0.00
2019,03,24,02,17,0.00
2019,03,24,02,18,0.00
2019,03,24,02,19,0.00
2019,03,24,02,20,0.00
2019,03,24,02,21,0.00
2019,03,24,02,22,0.00
2019,03,24,02,23,0.00
2019,03,24,02,24,0.00
2019,03,24,02,25,0.00
2019,03,24,02,26,0.00
2019,03,24,02,27,0.00
2019,03,24,02,28,0.00
2019,03,24,02,29,0.00
2019,03,24,02,30,0.00
2019,03,24,02,31,0.00
2019,03,24,02,32,0.00
2019,03,24,02,33,0.00
2019,03,24,02,34,0.00
2019,03,24,02,35,0.00
2019,03,24,02,36,0.00
2019,03,24,02,37,0.00
2019,03,24,02,38,0.00
2019,03,24,02,39,0.00
2019,03,24,02,40,0.00
2019,03,24,02,41,0.00
2019,03,24,02,42,0.00
2019,03,24,02,43,0.00
2019,03,24,02,44,0.00
2019,03,24,02,45,0.00
2019,03,24,02,46,0.00
2019,03,24,02,47,0.00
2019,03,24,02,48,0.00
2019,03,24,02,49,0.00
2019,03,24,02,50,0.00
2019,03,24,02,51,0.00
2019,03,24,02,52,0.00
2019,03,24,02,53,0.00
2019,03,24,02,54,0.00
2019,03,24,02,55,0.00
2019,03,24,02,56,0.00
2019,03,24,02,57,0.00
2019,03,24,02,58,0.00
2019,03,24,02,59,0.00
2019,03,24,03,00,0.00
2019,03,24,03,01,0.00
2019,03,24,03,02,0.00
2019,03,24,03,03,0.00
2019,03,24,03,04,0.00
2019,03,24,03,05,0.00
2019,03,24,03,06,0.00
2019,03,24,03,07,0.00
2019,03,24,03,08,0.00
2019,03,24,03,09,0.00
2019,03,24,03,10,0.00
2019,03,24,03,11,0.00
2019,03,24,03,12,0.00
2019,03,24,03,13,0.00
2019,03,24,03,14,0.00
2019,03,24,03,15,0.00
2019,03,24,03,16,0.00
2019,03,24,03,17,0.00
2019,03,24,03,18,0.00
2019,03,24,03,19,0.00
2019,03,24,03,20,0.00
2019,03,24,03,21,0.00
2019,03,24,03,22,0.00
2019,03,24,03,23,0.00
2019,03,24,03,24,0.00
2019,03,24,03,25,0.00
2019,03,24,03,26,0.00
2019,03,24,03,27,0.00
2019,03,24,03,28,0.00
2019,03,24,03,29,0.00
2019,03,24,03,30,0.00
2019,03,24,03,31,0.00
2019,03,24,03,32,0.00
2019,03,24,03,33,0.00
2019,03,24,03,34,0.00
2019,03,24,03,35,0.00
2019,03,24,03,36,0.00
2019,03,24,03,37,0.00
2019,03,24,03,38,0.00
2019,03,24,03,39,0.00
2019,03,24,03,40,0.00
2019,03,24,03,41,0.00
2019,03,24,03,42,0.00
2019,03,24,03,43,0.00
2019,03,24,03,44,0.00
2019,03,24,03,45,0.00
2019,03,24,03,46,0.00
2019,03,24,03,47,0.00
2019,03,24,03,48,0.00
2019,03,24,03,49,0.00
2019,03,24,03,50,0.00
2019,03,24,03,51,0.00
2019,03,24,03,52,0.00
2019,03,24,03,53,0.00
2019,03,24,03,54,0.00
2019,03,24,03,55,0.00
2019,03,24,03,56,0.00
2019,03,24,03,57,0.00
2019,03,24,03,58,0.00
2019,03,24,03,59,0.00
2019,03,24,04,00,0.00
2019,03,24,04,01,0.00
2019,03,24,04,02,0.00
2019,03,24,04,03,0.00
2019,03,24,04,04,0.00
2019,03,24,04,05,0.00
2019,03,24,04,06,0.00
2019,03,24,04,07,0.00
2019,03,24,04,08,0.00
2019,03,24,04,09,0.00
2019,03,24,04,10,0.00
2019,03,24,04,11,0.00
2019,03,24,04,12,0.00
2019,03,24,04,13,0.00
2019,03,24,04,14,0.00
2019,03,24,04,15,0.00
2019,03,24,04,16,0.00
2019,03,24,04,17,0.00
2019,03,24,04,18,0.00
2019,03,24,04,19,0.00
2019,03,24,04,20,0.00
2019,03,24,04,21,0.00
2019,03,24,04,22,0.00
2019,03,24,04,23,0.00
2019,03,24,04,24,0.00
2019,03,24,04,25,0.00
2019,03,24,04,26,0.00
2019,03,24,04,27,0.00
2019,03,24,04,28,0.00
2019,03,24,04,29,0.00
2019,03,24,04,30,0.00
2019,03,24,04,31,0.00
2019,03,24,04,32,0.00
2019,03,24,04,33,0.00
2019,03,24,04,34,0.00
2019,03,24,04,35,0.00
2019,03,24,04,36,0.00
2019,03,24,04,37,0.00
2019,03,24,04,38,0.00
2019,03,24,04,39,0.00
2019,03,24,04,40,0.00
2019,03,24,04,41,0.00
2019,03,24,04,42,0.00
2019,03,24,04,43,0.00
2019,03,24,04,44,0.00
2019,03,24,04,45,0.00
2019,03,24,04,46,0.00
2019,03,24,04,47,0.00
2019,03,24,04,48,0.00
2019,03,24,04,49,0.00
2019,03,24,04,50,0.00
2019,03,24,04,51,0.00
2019,03,24,04,52,0.00
2019,03,24,04,53,0.00
2019,03,24,04,54,0.00
2019,03,24,04,55,0.00
2019,03,24,04,56,0.00
2019,03,24,04,57,0.00
2019,03,24,04,58,0.00
2019,03,24,04,59,0.00
2019,03,24,05,00,0.00
2019,03,24,05,01,0.00
2019,03,24,05,02,0.00
2019,03,24,05,03,0.00
2019,03,24,05,04,0.00
2019,03,24,05,05,0.00
2019,03,24,05,06,0.00
2019,03,24,05,07,0.00
2019,03,24,05,08,0.00
2019,03,24,05,09,0.00
2019,03,24,05,10,0.00
2019,03,24,05,11,0.00
2019,03,24,05,12,0.00
2019,03,24,05,13,0.00
2019,03,24,05,14,0.00
2019,03,24,05,15,0.00
2019,03,24,05,16,0.00
2019,03,24,05,17,0.00
2019,03,24,05,18,0.00
2019,03,24,05,19,0.00
2019,03,24,05,20,0.00
2019,03,24,05,21,0.00
2019,03,24,05,22,0.00
2019,03,24,05,23,0.00
2019,03,24,05,24,0.00
2019,03,24,05,25,0.00
2019,03,24,05,26,0.00
2019,03,24,05,27,0.00
2019,03,24,05,28,0.00
2019,03,24,05,29,0.00
2019,03,24,05,30,0.00
2019,03,24,05,31,0.00
2019,03,24,05,32,0.00
2019,03,24,05,33,0.00
2019,03,24,05,34,0.00
2019,03,24,05,35,0.00
2019,03,24,05,36,0.00
2019,03,24,05,37,0.00
2019,03,24,05,38,0.00
2019,03,24,05,39,0.00
2019,03,24,05,40,0.00
2019,03,24,05,41,0.00
2019,03,24,05,42,0.00
2019,03,24,05,43,0.00
2019,03,24,05,44,0.00
2019,03,24,05,45,0.00
2019,03,24,05,46,0.00
2019,03,24,05,47,0.00
2019,03,24,05,48,0.00
2019,03,24,05,49,0.00
2019,03,24,05,50,0.00
2019,03,24,05,51,0.00
2019,03,24,05,52,0.00
2019,03,24,05,53,0.00
2019,03,24,05,54,0.00
2019,03,24,05,55,0.00
2019,03,24,05,56,0.00
2019,03,24,05,57,0.00
2019,03,24,05,58,0.00
2019,03,24,05,59,0.00
2019,03,24,06,00,0.00
2019,03,24,06,01,0.00
2019,03,24,06,02,0.00
2019,03,24,06,03,0.00
2019,03,24,06,04,0.00
2019,03,24,06,05,0.00
2019,03,24,06,06,0.00
2019,03,24,06,07,0.00
2019,03,24,06,08,0.00
2019,03,24,06,09,0.00
2019,03,24,06,10,0.00
2019,03,24,06,11,0.00
2019,03,24,06,12,0.00
2019,03,24,06,13,0.00
2019,03,24,06,14,0.00
2019,03,24,06,15,0.00
2019,03,24,06,16,0.00
2019,03,24,06,17,0.00
2019,03,24,06,18,0.00
2019,03,24,06,19,0.00
2019,03,24,06,20,0.00
2019,03,24,06,21,0.00
2019,03,24,06,22,0.00
2019,03,24,06,23,0.00
2019,03,24,06,24,0.00
2019,03,24,06,25,0.00
2019,03,24,06,26,0.00
2019,03,24,06,27,0.00
2019,03,24,06,28,0.00
2019,03,24,06,29,0.00
2019,03,24,06,30,0.00
2019,03,24,06,31,0.00
2019,03,24,06,32,0.00
2019,03,24,06,33,0.00
2019,03,24,06,34,0.00
2019,03,24,06,35,0.00
2019,03,24,06,36,0.00
2019,03,24,06,37,0.00
2019,03,24,06,38,0.00
2019,03,24,06,39,0.00
2019,03,24,06,40,0.00
2019,03,24,06,41,0.00
2019,03,24,06,42,0.00
2019,03,24,06,43,0.00
2019,03,24,06,44,0.00
2019,03,24,06,45,0.00
2019,03,24,06,46,0.00
2019,03,24,06,47,0.00
2019,03,24,06,48,0.00
2019,03,24,06,49,0.00
2019,03,24,06,50,0.00
2019,03,24,06,51,0.00
2019,03,24,06,52,0.00
2019,03,24,06,53,0.00
2019,03,24,06,54,0.00
2019,03,24,06,55,0.00
2019,03,24,06,56,0.00
2019,03,24,06,57,0.00
2019,03,24,06,58,0.00
2019,03,24,06,59,0.00
2019,03,24,07,00,0.00
2019,03,24,07,01,0.00
2019,03,24,07,02,0.00
2019,03,24,07,03,0.00
2019,03,24,07,04,0.00
2019,03,24,07,05,0.00
2019,03,24,07,06,0.00
2019,03,24,07,07,0.00
2019,03,24,07,08,0.00
2019,03,24,07,09,0.00
2019,03,24,07,10,0.00
2019,03,24,07,11,0.00
2019,03,24,07,12,0.00
2019,03,24,07,13,0.00
2019,03,24,07,14,0.00
2019,03,24,07,15,0.00
2019,03,24,07,16,0.00
2019,03,24,07,17,0.00
2019,03,24,07,18,4.60
2019,03,24,07,19,5.00
2019,03,24,07,20,5.00
2019,03,24,07,21,5.70
2019,03,24,07,22,7.00
2019,03,24,07,23,7.00
2019,03,24,07,24,8.30
2019,03,24,07,25,9.00
2019,03,24,07,26,9.00
2019,03,24,07,27,10.90
2019,03,24,07,28,11.00
2019,03,24,07,29,11.30
2019,03,24,07,30,12.00
2019,03,24,07,31,13.00
2019,03,24,07,32,14.00
2019,03,24,07,33,15.40
2019,03,24,07,34,16.00
2019,03,24,07,35,17.90
2019,03,24,07,36,18.10
2019,03,24,07,37,19.00
2019,03,24,07,38,19.60
2019,03,24,07,39,21.00
2019,03,24,07,40,22.00
2019,03,24,07,41,23.00
2019,03,24,07,42,24.50
2019,03,24,07,43,25.00
2019,03,24,07,44,25.90
2019,03,24,07,45,26.00
2019,03,24,07,46,26.60
2019,03,24,07,47,28.00
2019,03,24,07,48,28.90
2019,03,24,07,49,30.00
2019,03,24,07,50,31.30
2019,03,24,07,51,32.00
2019,03,24,07,52,32.90
2019,03,24,07,53,33.20
2019,03,24,07,54,35.00
2019,03,24,07,55,35.60
2019,03,24,07,56,37.00
2019,03,24,07,57,37.00
2019,03,24,07,58,38.20
2019,03,24,07,59,39.00
2019,03,24,08,00,39.00
2019,03,24,08,01,39.90
2019,03,24,08,02,40.00
2019,03,24,08,03,40.40
2019,03,24,08,04,42.00
2019,03,24,08,05,42.80
2019,03,24,08,06,44.00
2019,03,24,08,07,44.00
2019,03,24,08,08,45.50
2019,03,24,08,09,46.00
2019,03,24,08,10,47.00
2019,03,24,08,11,47.40
2019,03,24,08,12,49.00
2019,03,24,08,13,49.00
2019,03,24,08,14,50.00
2019,03,24,08,15,52.20
2019,03,24,08,16,53.00
2019,03,24,08,17,53.80
2019,03,24,08,18,55.80
2019,03,24,08,19,56.20
2019,03,24,08,20,58.00
2019,03,24,08,21,58.70
2019,03,24,08,22,60.90
2019,03,24,08,23,62.00
2019,03,24,08,24,62.60
2019,03,24,08,25,64.40
2019,03,24,08,26,66.70
2019,03,24,08,27,68.90
2019,03,24,08,28,70.30
2019,03,24,08,29,72.50
2019,03,24,08,30,75.10
2019,03,24,08,31,78.00
2019,03,24,08,32,81.30
2019,03,24,08,33,83.70
2019,03,24,08,34,87.00
2019,03,24,08,35,89.70
2019,03,24,08,36,93.30
2019,03,24,08,37,97.20
2019,03,24,08,38,99.20
2019,03,24,08,39,102.80
2019,03,24,08,40,105.60
2019,03,24,08,41,109.40
2019,03,24,08,42,113.10
2019,03,24,08,43,117.20
2019,03,24,08,44,120.70
2019,03,24,08,45,123.30
2019,03,24,08,46,125.70
2019,03,24,08,47,128.00
2019,03,24,08,48,128.00
2019,03,24,08,49,130.20
2019,03,24,08,50,132.00
2019,03,24,08,51,132.00
2019,03,24,08,52,133.70
2019,03,24,08,53,134.00
2019,03,24,08,54,134.20
2019,03,24,08,55,135.60
2019,03,24,08,56,137.80
2019,03,24,08,57,139.00
2019,03,24,08,58,139.00
2019,03,24,08,59,139.00
2019,03,24,09,00,139.00
2019,03,24,09,01,143.60
2019,03,24,09,02,143.80
2019,03,24,09,03,142.80
2019,03,24,09,04,146.70
2019,03,24,09,05,149.30
2019,03,24,09,06,152.00
2019,03,24,09,07,154.20
2019,03,24,09,08,157.20
2019,03,24,09,09,158.00
2019,03,24,09,10,163.00
2019,03,24,09,11,169.40
2019,03,24,09,12,172.00
2019,03,24,09,13,174.10
2019,03,24,09,14,179.40
2019,03,24,09,15,182.20
2019,03,24,09,16,181.60
2019,03,24,09,17,175.70
2019,03,24,09,18,180.00
2019,03,24,09,19,187.30
2019,03,24,09,20,199.00
2019,03,24,09,21,202.10
2019,03,24,09,22,212.50
2019,03,24,09,23,219.40
2019,03,24,09,24,223.30
2019,03,24,09,25,225.00
2019,03,24,09,26,223.40
2019,03,24,09,27,227.60
2019,03,24,09,28,199.90
2019,03,24,09,29,208.00
2019,03,24,09,30,217.20
2019,03,24,09,31,231.20
2019,03,24,09,32,237.90
2019,03,24,09,33,255.80
2019,03,24,09,34,264.80
2019,03,24,09,35,250.30
2019,03,24,09,36,230.10
2019,03,24,09,37,241.30
2019,03,24,09,38,266.10
2019,03,24,09,39,262.50
2019,03,24,09,40,248.40
2019,03,24,09,41,248.90
2019,03,24,09,42,248.00
2019,03,24,09,43,225.90
2019,03,24,09,44,293.60
2019,03,24,09,45,309.30
2019,03,24,09,46,333.90
2019,03,24,09,47,321.70
2019,03,24,09,48,291.40
2019,03,24,09,49,210.20
2019,03,24,09,50,175.40
2019,03,24,09,51,172.00
2019,03,24,09,52,166.20
2019,03,24,09,53,167.00
2019,03,24,09,54,171.50
2019,03,24,09,55,171.80
2019,03,24,09,56,167.10
2019,03,24,09,57,186.90
2019,03,24,09,58,231.60
2019,03,24,09,59,252.40
2019,03,24,10,00,264.00
2019,03,24,10,01,277.30
2019,03,24,10,02,255.00
2019,03,24,10,03,270.20
2019,03,24,10,04,258.70
2019,03,24,10,05,259.90
2019,03,24,10,06,239.30
2019,03,24,10,07,221.10
2019,03,24,10,08,272.40
2019,03,24,10,09,311.00
2019,03,24,10,10,293.70
2019,03,24,10,11,301.80
2019,03,24,10,12,317.90
2019,03,24,10,13,329.80
2019,03,24,10,14,317.80
2019,03,24,10,15,299.80
2019,03,24,10,16,264.00
2019,03,24,10,17,248.80
2019,03,24,10,18,319.90
2019,03,24,10,19,312.40
2019,03,24,10,20,320.50
2019,03,24,10,21,320.20
2019,03,24,10,22,316.40
2019,03,24,10,23,325.50
2019,03,24,10,24,321.40
2019,03,24,10,25,329.80
2019,03,24,10,26,313.80
2019,03,24,10,27,282.60
2019,03,24,10,28,302.90
2019,03,24,10,29,349.10
2019,03,24,10,30,337.40
2019,03,24,10,31,332.90
2019,03,24,10,32,301.70
2019,03,24,10,33,258.10
2019,03,24,10,34,246.00
2019,03,24,10,35,247.70
2019,03,24,10,36,263.40
2019,03,24,10,37,254.70
2019,03,24,10,38,262.80
2019,03,24,10,39,253.60
2019,03,24,10,40,248.00
2019,03,24,10,41,258.00
2019,03,24,10,42,259.50
2019,03,24,10,43,259.40
2019,03,24,10,44,263.40
2019,03,24,10,45,271.50
2019,03,24,10,46,277.40
2019,03,24,10,47,283.00
2019,03,24,10,48,283.80
2019,03,24,10,49,286.40
2019,03,24,10,50,293.60
2019,03,24,10,51,302.10
2019,03,24,10,52,313.90
2019,03,24,10,53,328.60
2019,03,24,10,54,344.00
2019,03,24,10,55,354.40
2019,03,24,10,56,357.20
2019,03,24,10,57,347.10
2019,03,24,10,58,351.00
2019,03,24,10,59,359.60
2019,03,24,11,00,359.80
2019,03,24,11,01,354.00
2019,03,24,11,02,367.20
2019,03,24,11,03,389.70
2019,03,24,11,04,388.60
2019,03,24,11,05,394.90
2019,03,24,11,06,409.50
2019,03,24,11,07,406.40
2019,03,24,11,08,418.30
2019,03,24,11,09,430.20
2019,03,24,11,10,427.40
2019,03,24,11,11,459.50
2019,03,24,11,12,459.70
2019,03,24,11,13,447.30
2019,03,24,11,14,449.10
2019,03,24,11,15,450.40
2019,03,24,11,16,484.50
2019,03,24,11,17,476.70
2019,03,24,11,18,488.00
2019,03,24,11,19,466.60
2019,03,24,11,20,476.60
2019,03,24,11,21,455.80
2019,03,24,11,22,499.80
2019,03,24,11,23,503.70
2019,03,24,11,24,436.90
2019,03,24,11,25,431.20
2019,03,24,11,26,422.50
2019,03,24,11,27,441.70
2019,03,24,11,28,448.10
2019,03,24,11,29,424.80
2019,03,24,11,30,434.00
2019,03,24,11,31,443.10
2019,03,24,11,32,454.20
2019,03,24,11,33,497.10
2019,03,24,11,34,513.30
2019,03,24,11,35,467.40
2019,03,24,11,36,408.70
2019,03,24,11,37,435.10
2019,03,24,11,38,403.60
2019,03,24,11,39,409.80
2019,03,24,11,40,405.80
2019,03,24,11,41,389.20
2019,03,24,11,42,403.70
2019,03,24,11,43,407.90
2019,03,24,11,44,390.50
2019,03,24,11,45,361.90
2019,03,24,11,46,351.60
2019,03,24,11,47,376.50
2019,03,24,11,48,412.30
2019,03,24,11,49,439.80
2019,03,24,11,50,424.90
2019,03,24,11,51,426.60
2019,03,24,11,52,449.90
2019,03,24,11,53,406.70
2019,03,24,11,54,396.90
2019,03,24,11,55,427.80
2019,03,24,11,56,451.60
2019,03,24,11,57,454.60
2019,03,24,11,58,469.00
2019,03,24,11,59,475.60
2019,03,24,12,00,460.50
2019,03,24,12,01,461.10
2019,03,24,12,02,473.90
2019,03,24,12,03,435.70
2019,03,24,12,04,386.10
2019,03,24,12,05,366.00
2019,03,24,12,06,348.40
2019,03,24,12,07,346.90
2019,03,24,12,08,369.70
2019,03,24,12,09,387.90
2019,03,24,12,10,395.40
2019,03,24,12,11,400.40
2019,03,24,12,12,419.60
2019,03,24,12,13,430.00
2019,03,24,12,14,451.30
2019,03,24,12,15,470.90
2019,03,24,12,16,490.70
2019,03,24,12,17,498.20
2019,03,24,12,18,533.00
2019,03,24,12,19,534.60
2019,03,24,12,20,543.50
2019,03,24,12,21,478.00
2019,03,24,12,22,454.60
2019,03,24,12,23,406.10
2019,03,24,12,24,394.90
2019,03,24,12,25,380.80
2019,03,24,12,26,385.00
2019,03,24,12,27,410.30
2019,03,24,12,28,383.20
2019,03,24,12,29,404.00
2019,03,24,12,30,437.90
2019,03,24,12,31,400.20
2019,03,24,12,32,389.80
2019,03,24,12,33,356.00
2019,03,24,12,34,339.00
2019,03,24,12,35,347.70
2019,03,24,12,36,310.60
2019,03,24,12,37,275.20
2019,03,24,12,38,245.20
2019,03,24,12,39,239.20
2019,03,24,12,40,274.50
2019,03,24,12,41,307.10
2019,03,24,12,42,365.30
2019,03,24,12,43,433.40
2019,03,24,12,44,502.10
2019,03,24,12,45,569.80
2019,03,24,12,46,593.00
2019,03,24,12,47,616.40
2019,03,24,12,48,563.60
2019,03,24,12,49,511.40
2019,03,24,12,50,478.30
2019,03,24,12,51,513.60
2019,03,24,12,52,587.60
2019,03,24,12,53,647.00
2019,03,24,12,54,670.90
2019,03,24,12,55,616.50
2019,03,24,12,56,598.00
2019,03,24,12,57,638.00
2019,03,24,12,58,631.00
2019,03,24,12,59,594.00
2019,03,24,13,00,629.30
2019,03,24,13,01,683.30
2019,03,24,13,02,708.50
2019,03,24,13,03,722.00
2019,03,24,13,04,725.60
2019,03,24,13,05,737.00
2019,03,24,13,06,695.80
2019,03,24,13,07,645.00
2019,03,24,13,08,645.00
2019,03,24,13,09,662.40
2019,03,24,13,10,627.50
2019,03,24,13,11,649.30
2019,03,24,13,12,665.00
2019,03,24,13,13,684.30
2019,03,24,13,14,685.60
2019,03,24,13,15,715.00
2019,03,24,13,16,656.60
2019,03,24,13,17,638.90
2019,03,24,13,18,637.10
2019,03,24,13,19,563.30
2019,03,24,13,20,581.30
2019,03,24,13,21,577.90
2019,03,24,13,22,581.20
2019,03,24,13,23,531.30
2019,03,24,13,24,480.30
2019,03,24,13,25,478.60
2019,03,24,13,26,467.90
2019,03,24,13,27,450.30
2019,03,24,13,28,492.70
2019,03,24,13,29,550.80
2019,03,24,13,30,571.30
2019,03,24,13,31,583.40
2019,03,24,13,32,589.90
2019,03,24,13,33,573.30
2019,03,24,13,34,562.30
2019,03,24,13,35,601.20
2019,03,24,13,36,637.20
2019,03,24,13,37,657.90
2019,03,24,13,38,670.90
2019,03,24,13,39,675.00
2019,03,24,13,40,678.70
2019,03,24,13,41,679.50
2019,03,24,13,42,670.90
2019,03,24,13,43,670.20
2019,03,24,13,44,683.40
2019,03,24,13,45,703.60
2019,03,24,13,46,714.10
2019,03,24,13,47,746.80
2019,03,24,13,48,763.90
2019,03,24,13,49,743.40
2019,03,24,13,50,728.00
2019,03,24,13,51,670.30
2019,03,24,13,52,638.50
2019,03,24,13,53,568.20
2019,03,24,13,54,516.60
2019,03,24,13,55,507.40
2019,03,24,13,56,467.10
2019,03,24,13,57,452.80
2019,03,24,13,58,442.60
2019,03,24,13,59,437.20
2019,03,24,14,00,436.00
2019,03,24,14,01,436.00
2019,03,24,14,02,432.40
2019,03,24,14,03,426.80
2019,03,24,14,04,424.80
2019,03,24,14,05,423.40
2019,03,24,14,06,422.00
2019,03,24,14,07,423.10
2019,03,24,14,08,424.60
2019,03,24,14,09,426.40
2019,03,24,14,10,370.70
2019,03,24,14,11,391.40
2019,03,24,14,12,441.30
2019,03,24,14,13,443.50
2019,03,24,14,14,445.30
2019,03,24,14,15,445.60
2019,03,24,14,16,445.00
2019,03,24,14,17,443.60
2019,03,24,14,18,444.60
2019,03,24,14,19,447.70
2019,03,24,14,20,447.70
2019,03,24,14,21,443.30
2019,03,24,14,22,444.40
2019,03,24,14,23,441.30
2019,03,24,14,24,440.00
2019,03,24,14,25,445.20
2019,03,24,14,26,452.10
2019,03,24,14,27,458.00
2019,03,24,14,28,468.00
2019,03,24,14,29,486.80
2019,03,24,14,30,481.50
2019,03,24,14,31,465.60
2019,03,24,14,32,462.30
2019,03,24,14,33,460.10
2019,03,24,14,34,455.70
2019,03,24,14,35,449.80
2019,03,24,14,36,446.30
2019,03,24,14,37,451.70
2019,03,24,14,38,477.20
2019,03,24,14,39,484.90
2019,03,24,14,40,487.00
2019,03,24,14,41,479.00
2019,03,24,14,42,470.10
2019,03,24,14,43,475.70
2019,03,24,14,44,463.30
2019,03,24,14,45,457.20
2019,03,24,14,46,456.20
2019,03,24,14,47,464.50
2019,03,24,14,48,465.40
2019,03,24,14,49,461.10
2019,03,24,14,50,453.40
2019,03,24,14,51,455.60
2019,03,24,14,52,476.40
2019,03,24,14,53,482.00
2019,03,24,14,54,587.20
2019,03,24,14,55,566.30
2019,03,24,14,56,617.40
2019,03,24,14,57,599.90
2019,03,24,14,58,588.60
2019,03,24,14,59,564.40
2019,03,24,15,00,552.00
2019,03,24,15,01,552.00
2019,03,24,15,02,606.30
2019,03,24,15,03,625.30
2019,03,24,15,04,713.60
2019,03,24,15,05,708.00
2019,03,24,15,06,763.40
2019,03,24,15,07,832.40
2019,03,24,15,08,831.30
2019,03,24,15,09,816.10
2019,03,24,15,10,792.10
2019,03,24,15,11,762.60
2019,03,24,15,12,750.80
2019,03,24,15,13,748.00
2019,03,24,15,14,742.20
2019,03,24,15,15,737.00
2019,03,24,15,16,706.50
2019,03,24,15,17,625.00
2019,03,24,15,18,574.80
2019,03,24,15,19,558.50
2019,03,24,15,20,562.60
2019,03,24,15,21,645.10
2019,03,24,15,22,676.50
2019,03,24,15,23,665.80
2019,03,24,15,24,654.50
2019,03,24,15,25,645.90
2019,03,24,15,26,637.50
2019,03,24,15,27,635.00
2019,03,24,15,28,635.00
2019,03,24,15,29,636.00
2019,03,24,15,30,636.40
2019,03,24,15,31,638.00
2019,03,24,15,32,637.20
2019,03,24,15,33,635.40
2019,03,24,15,34,633.70
2019,03,24,15,35,631.60
2019,03,24,15,36,634.30
2019,03,24,15,37,636.00
2019,03,24,15,38,636.30
2019,03,24,15,39,637.40
2019,03,24,15,40,635.60
2019,03,24,15,41,630.10
2019,03,24,15,42,617.90
2019,03,24,15,43,598.50
2019,03,24,15,44,599.10
2019,03,24,15,45,599.20
2019,03,24,15,46,590.80
2019,03,24,15,47,587.00
2019,03,24,15,48,577.10
2019,03,24,15,49,579.10
2019,03,24,15,50,588.50
2019,03,24,15,51,593.20
2019,03,24,15,52,584.30
2019,03,24,15,53,591.10
2019,03,24,15,54,593.90
2019,03,24,15,55,591.70
2019,03,24,15,56,596.50
2019,03,24,15,57,600.40
2019,03,24,15,58,612.20
2019,03,24,15,59,624.90
2019,03,24,16,00,628.60
2019,03,24,16,01,629.00
2019,03,24,16,02,629.00
2019,03,24,16,03,630.90
2019,03,24,16,04,630.10
2019,03,24,16,05,625.40
2019,03,24,16,06,622.00
2019,03,24,16,07,621.40
2019,03,24,16,08,625.20
2019,03,24,16,09,621.20
2019,03,24,16,10,624.60
2019,03,24,16,11,627.80
2019,03,24,16,12,621.30
2019,03,24,16,13,615.00
2019,03,24,16,14,607.80
2019,03,24,16,15,590.00
2019,03,24,16,16,583.40
2019,03,24,16,17,574.60
2019,03,24,16,18,564.90
2019,03,24,16,19,549.80
2019,03,24,16,20,541.20
2019,03,24,16,21,532.60
2019,03,24,16,22,524.30
2019,03,24,16,23,518.90
2019,03,24,16,24,511.90
2019,03,24,16,25,511.00
2019,03,24,16,26,511.70
2019,03,24,16,27,508.50
2019,03,24,16,28,506.20
2019,03,24,16,29,496.70
2019,03,24,16,30,493.20
2019,03,24,16,31,486.90
2019,03,24,16,32,474.50
2019,03,24,16,33,463.60
2019,03,24,16,34,455.70
2019,03,24,16,35,449.10
2019,03,24,16,36,448.00
2019,03,24,16,37,439.60
2019,03,24,16,38,438.50
2019,03,24,16,39,444.90
2019,03,24,16,40,453.00
2019,03,24,16,41,457.70
2019,03,24,16,42,461.60
2019,03,24,16,43,463.30
2019,03,24,16,44,464.00
2019,03,24,16,45,461.40
2019,03,24,16,46,462.00
2019,03,24,16,47,462.30
2019,03,24,16,48,462.10
2019,03,24,16,49,457.00
2019,03,24,16,50,457.00
2019,03,24,16,51,457.00
2019,03,24,16,52,457.00
2019,03,24,16,53,453.00
2019,03,24,16,54,453.80
2019,03,24,16,55,452.00
2019,03,24,16,56,452.00
2019,03,24,16,57,452.60
2019,03,24,16,58,454.40
2019,03,24,16,59,458.30
2019,03,24,17,00,464.30
2019,03,24,17,01,469.80
2019,03,24,17,02,475.10
2019,03,24,17,03,479.80
2019,03,24,17,04,483.70
2019,03,24,17,05,487.00
2019,03,24,17,06,487.80
2019,03,24,17,07,488.10
2019,03,24,17,08,485.90
2019,03,24,17,09,483.70
2019,03,24,17,10,482.20
2019,03,24,17,11,480.20
2019,03,24,17,12,477.90
2019,03,24,17,13,475.50
2019,03,24,17,14,472.40
2019,03,24,17,15,469.80
2019,03,24,17,16,467.00